Change the Weather History Date:

Wednesday, January 29, 2014

  Actual Average (KLNR) Record (KLNR)
Temperature  
Mean Temperature 11 °F -  
Max Temperature 26 °F 27 °F 50 °F (2013)
Min Temperature -4 °F 12 °F -17 °F (2014)
Degree Days  
Heating Degree Days 54    
Moisture  
Dew Point -1 °F    
Average Humidity 58    
Maximum Humidity 78    
Minimum Humidity 41    
Precipitation  
Precipitation 0.00 in - - ()
Sea Level Pressure  
Sea Level Pressure 29.99 in    
Wind  
Wind Speed 9 mph (SSW)    
Max Wind Speed 18 mph    
Max Gust Speed 26 mph    
Visibility 10 miles    
Events      
Averages and records for this station are not official NWS values.
T = Trace of Precipitation, MM = Missing Value Source: NWS Daily Summary

Daily Weather History Graph

Daily Weather History Graph

Search for Another Location

Airport or City:

Trip Planner

Search our weather history database for the weather conditions in past years. The results will help you decide how hot, cold, wet, or windy it might be!

Date:

Astronomy

Jan. 29, 2014 Rise Set
Actual Time 7:18 AM CST 5:09 PM CST
Civil Twilight 6:48 AM CST 5:40 PM CST
Nautical Twilight 6:14 AM CST 6:14 PM CST
Astronomical Twilight 5:41 AM CST 6:47 PM CST
Moon 5:55 AM CST (1/29) 4:09 PM CST (1/29)
Length of Visible Light 10h 51m
Length of Day
9h 51m
Waning Crescent, 2% of the Moon is Illuminated
Jan 29
Waning Crescent
Jan 30
New
Feb 6
First Quarter
Feb 14
Full
Feb 22
Last Quarter

Hourly Weather History & Observations

Time (CST) Temp. Windchill Dew Point Humidity Pressure Visibility Wind Dir Wind Speed Gust Speed Precip Events Conditions
12:15 AM -0.4 °F -15.7 °F -9.4 °F 66% 30.12 in 10.0 mi WSW 9.2 mph - N/A   Clear
12:35 AM -0.4 °F -13.4 °F -9.4 °F 66% 30.12 in 10.0 mi West 6.9 mph - N/A   Clear
12:55 AM -2.2 °F -18.9 °F -9.4 °F 71% 30.11 in 10.0 mi WSW 10.4 mph - N/A   Clear
1:15 AM -2.2 °F -16.8 °F -9.4 °F 71% 30.11 in 10.0 mi WSW 8.1 mph - N/A   Clear
1:35 AM -2.2 °F -18.0 °F -9.4 °F 71% 30.10 in 10.0 mi WSW 9.2 mph - N/A   Clear
1:55 AM -2.2 °F -14.2 °F -9.4 °F 71% 30.10 in 10.0 mi WSW 5.8 mph - N/A   Clear
2:15 AM -2.2 °F -16.8 °F -9.4 °F 71% 30.09 in 10.0 mi WSW 8.1 mph - N/A   Clear
2:35 AM -4.0 °F -16.3 °F -9.4 °F 78% 30.10 in 10.0 mi WSW 5.8 mph - N/A   Clear
2:55 AM -4.0 °F -19.0 °F -9.4 °F 78% 30.09 in 10.0 mi WSW 8.1 mph - N/A   Clear
3:15 AM -4.0 °F -19.0 °F -9.4 °F 78% 30.09 in 10.0 mi WSW 8.1 mph - N/A   Clear
3:35 AM -2.2 °F -18.0 °F -9.4 °F 71% 30.09 in 10.0 mi WSW 9.2 mph - N/A   Clear
3:55 AM -2.2 °F -18.0 °F -9.4 °F 71% 30.08 in 10.0 mi WSW 9.2 mph - N/A   Clear
4:15 AM -4.0 °F -19.0 °F -9.4 °F 78% 30.08 in 10.0 mi WSW 8.1 mph - N/A   Clear
4:35 AM -4.0 °F -17.8 °F -9.4 °F 78% 30.09 in 10.0 mi West 6.9 mph - N/A   Clear
4:55 AM -4.0 °F -12.4 °F -11.2 °F 71% 30.09 in 10.0 mi West 3.5 mph - N/A   Clear
5:15 AM -4.0 °F -17.8 °F -9.4 °F 78% 30.09 in 10.0 mi WSW 6.9 mph - N/A   Clear
5:35 AM -4.0 °F -16.3 °F -11.2 °F 71% 30.09 in 10.0 mi WSW 5.8 mph - N/A   Clear
5:55 AM -4.0 °F -16.3 °F -9.4 °F 78% 30.08 in 10.0 mi SW 5.8 mph - N/A   Clear
6:15 AM -0.4 °F -14.7 °F -9.4 °F 66% 30.08 in 10.0 mi SW 8.1 mph - N/A   Clear
6:35 AM 1.4 °F -12.5 °F -9.4 °F 61% 30.07 in 10.0 mi SW 8.1 mph - N/A   Clear
6:55 AM -0.4 °F -15.7 °F -9.4 °F 66% 30.07 in 10.0 mi WSW 9.2 mph - N/A   Clear
7:15 AM -0.4 °F -10.4 °F -9.4 °F 66% 30.07 in 10.0 mi WSW 4.6 mph - N/A   Clear
7:35 AM -0.4 °F - -9.4 °F 66% 30.07 in 10.0 mi Calm Calm - N/A   Clear
7:55 AM -0.4 °F - -9.4 °F 66% 30.07 in 10.0 mi Calm Calm - N/A   Clear
8:15 AM -0.4 °F - -11.2 °F 60% 30.07 in 10.0 mi Calm Calm - N/A   Clear
8:35 AM -0.4 °F -10.4 °F -9.4 °F 66% 30.07 in 10.0 mi SW 4.6 mph - N/A   Clear
8:55 AM 3.2 °F -10.3 °F -9.4 °F 56% 30.07 in 10.0 mi SW 8.1 mph - N/A   Clear
9:15 AM 3.2 °F -10.3 °F -7.6 °F 61% 30.07 in 10.0 mi SW 8.1 mph - N/A   Clear
9:35 AM 5.0 °F -6.9 °F -7.6 °F 56% 30.07 in 10.0 mi WSW 6.9 mph - N/A   Clear
9:55 AM 8.6 °F -6.3 °F -7.6 °F 48% 30.07 in 10.0 mi SW 11.5 mph - N/A   Clear
10:15 AM 8.6 °F -3.7 °F -7.6 °F 48% 30.08 in 10.0 mi SW 8.1 mph - N/A   Clear
10:35 AM 10.4 °F 0.8 °F -7.6 °F 44% 30.07 in 10.0 mi WSW 5.8 mph - N/A   Clear
10:55 AM 12.2 °F 0.7 °F -5.8 °F 45% 30.08 in 10.0 mi WSW 8.1 mph - N/A   Clear
11:15 AM 12.2 °F -1.0 °F -5.8 °F 45% 30.07 in 10.0 mi WSW 10.4 mph - N/A   Clear
11:35 AM 14.0 °F 2.9 °F -5.8 °F 41% 30.07 in 10.0 mi SW 8.1 mph - N/A   Clear
11:55 AM 14.0 °F 2.9 °F -4.0 °F 45% 30.06 in 10.0 mi SW 8.1 mph - N/A   Clear
12:15 PM 17.6 °F 5.7 °F -2.2 °F 42% 30.04 in 10.0 mi SSW 10.4 mph 16.1 mph N/A   Clear
12:35 PM 15.8 °F 2.1 °F -0.4 °F 49% 30.02 in 10.0 mi South 12.7 mph - N/A   Clear
12:55 PM 15.8 °F 5.1 °F -0.4 °F 49% 30.02 in 10.0 mi South 8.1 mph - N/A   Clear
1:15 PM 15.8 °F 5.1 °F -0.4 °F 49% 30.01 in 10.0 mi South 8.1 mph - N/A   Clear
1:35 PM 17.6 °F 3.7 °F -0.4 °F 45% 30.00 in 10.0 mi SSW 13.8 mph - N/A   Clear
1:55 PM 19.4 °F 6.6 °F 1.4 °F 46% 29.99 in 10.0 mi SSW 12.7 mph - N/A   Clear
2:15 PM 19.4 °F 6.6 °F 1.4 °F 46% 29.99 in 10.0 mi South 12.7 mph - N/A   Clear
2:35 PM 21.2 °F 9.5 °F 3.2 °F 46% 29.98 in 10.0 mi South 11.5 mph - N/A   Clear
2:55 PM 21.2 °F 8.3 °F 3.2 °F 46% 29.96 in 10.0 mi SSW 13.8 mph 18.4 mph N/A   Clear
3:15 PM 21.2 °F 8.3 °F 3.2 °F 46% 29.96 in 10.0 mi South 13.8 mph - N/A   Clear
3:35 PM 21.2 °F 9.5 °F 3.2 °F 46% 29.95 in 10.0 mi South 11.5 mph - N/A   Clear
3:55 PM 21.2 °F 10.1 °F 5.0 °F 50% 29.94 in 10.0 mi South 10.4 mph - N/A   Clear
4:15 PM 21.2 °F 8.9 °F 5.0 °F 50% 29.94 in 10.0 mi South 12.7 mph - N/A   Clear
4:35 PM 21.2 °F 9.5 °F 6.8 °F 54% 29.92 in 10.0 mi South 11.5 mph - N/A   Clear
4:55 PM 21.2 °F 9.5 °F 5.0 °F 50% 29.92 in 10.0 mi SSE 11.5 mph - N/A   Clear
5:15 PM 19.4 °F 7.2 °F 6.8 °F 58% 29.91 in 10.0 mi SSE 11.5 mph - N/A   Clear
5:35 PM 19.4 °F 7.2 °F 6.8 °F 58% 29.89 in 10.0 mi SSE 11.5 mph - N/A   Clear
5:55 PM 19.4 °F 7.2 °F 8.6 °F 63% 29.89 in 10.0 mi SSE 11.5 mph - N/A   Clear
6:15 PM 19.4 °F 7.2 °F 8.6 °F 63% 29.89 in 10.0 mi SSE 11.5 mph - N/A   Clear
6:35 PM 19.4 °F 6.6 °F 8.6 °F 63% 29.87 in 10.0 mi SSE 12.7 mph - N/A   Clear
6:55 PM 19.4 °F 6.6 °F 8.6 °F 63% 29.86 in 10.0 mi SSE 12.7 mph - N/A   Clear
7:15 PM 19.4 °F 6.6 °F 8.6 °F 63% 29.86 in 10.0 mi SSE 12.7 mph - N/A   Clear
7:35 PM 19.4 °F 7.2 °F 8.6 °F 63% 29.85 in 10.0 mi South 11.5 mph - N/A   Clear
7:55 PM 19.4 °F 7.2 °F 8.6 °F 63% 29.85 in 10.0 mi South 11.5 mph - N/A   Clear
8:15 PM 21.2 °F 9.5 °F 6.8 °F 54% 29.83 in 10.0 mi SSE 11.5 mph - N/A   Clear
8:35 PM 23.0 °F 10.6 °F 8.6 °F 54% 29.83 in 10.0 mi South 13.8 mph 18.4 mph N/A   Clear
8:55 PM 23.0 °F 10.1 °F 8.6 °F 54% 29.82 in 10.0 mi South 15.0 mph 19.6 mph N/A   Clear
9:15 PM 26.6 °F 13.8 °F 8.6 °F 47% 29.82 in 10.0 mi South 17.3 mph 26.5 mph N/A   Clear
9:35 PM 26.6 °F 14.3 °F 8.6 °F 47% 29.82 in 10.0 mi South 16.1 mph - N/A   Clear
9:55 PM 26.6 °F 14.7 °F 8.6 °F 47% 29.81 in 10.0 mi South 15.0 mph 21.9 mph N/A   Clear
10:15 PM 26.6 °F 13.4 °F 10.4 °F 51% 29.80 in 10.0 mi South 18.4 mph 25.3 mph N/A   Clear
10:35 PM 26.6 °F 14.3 °F 10.4 °F 51% 29.80 in 10.0 mi South 16.1 mph 21.9 mph N/A   Clear
10:55 PM 26.6 °F 14.7 °F 10.4 °F 51% 29.80 in 10.0 mi South 15.0 mph 23.0 mph N/A   Clear
11:15 PM 26.6 °F 14.7 °F 10.4 °F 51% 29.79 in 10.0 mi South 15.0 mph 23.0 mph N/A   Clear
11:35 PM 26.6 °F 14.3 °F 10.4 °F 51% 29.78 in 10.0 mi South 16.1 mph 21.9 mph N/A   Clear
11:55 PM 26.6 °F 13.8 °F 10.4 °F 51% 29.77 in 10.0 mi South 17.3 mph 21.9 mph N/A   Clear